Regional Weather Roundup
Issued by NWS

Home | Current Version | Previous Version | Text Only | Print | Product List | Glossary Off
Versions: 1 2 3 4 5 6 7 8 9 10 11 12 13 14 15 16 17 18 19 20 21 22 23 24 25 26 27 28 29 30 31 32 33 34 35 36 37 38 39 40 41 42 43 44 45 46 47 48 49 50

000
ASUS43 KMKX 272210
RWRWI

WISCONSIN REGIONAL WEATHER ROUNDUP
NATIONAL WEATHER SERVICE MILWAUKEE/SULLIVAN WI
500 PM CDT FRI MAR 27 2015

NOTE: "FAIR" INDICATES FEW OR NO CLOUDS BELOW 12,000 FEET WITH NO
SIGNIFICANT WEATHER AND/OR OBSTRUCTIONS TO VISIBILITY.

WIZ001-002-006>008-014>016-023>028-272300-
NORTHWEST WISCONSIN

CITY           SKY/WX    TMP DP  RH WIND       PRES   REMARKS
SUPERIOR ARPT  SUNNY     30   8  40 NE10      30.18F WCI  21
ASHLAND        SUNNY     30  12  47 NE9       30.19S WCI  22
HAYWARD        SUNNY     33   4  29 VRB5      30.12F WCI  29
SIREN          SUNNY     34   1  23 N3        30.14S
CUMBERLAND     SUNNY     32   3  29 W3        30.13F
RICE LAKE      SUNNY     34   5  29 CALM      30.16S
CHETEK         SUNNY     33   6  32 NE3       30.14F
LADYSMITH      SUNNY     34   5  30 CALM      30.14F
EAU CLAIRE     SUNNY     35   5  28 S6        30.14F WCI  30
MENOMONIE      SUNNY     36   2  24 CALM      30.14F
NEW RICHMOND   SUNNY     35   3  26 S5        30.14F WCI  31
OSCEOLA        SUNNY     35   4  26 CALM      30.17F
$$

WIZ003>005-009-010-017-018-272300-
NORTH CENTRAL WISCONSIN

CITY           SKY/WX    TMP DP  RH WIND       PRES   REMARKS
MANITOWISH WTR SUNNY     29   0  28 NE5       30.11S WCI  24
ARBOR VITAE    SUNNY     29   1  29 N8        30.11S WCI  21
WOODRUFF       SUNNY     29   1  29 N8        30.11S WCI  21
RHINELANDER    SUNNY     29   0  28 CALM      30.11S
EAGLE RIVER    SUNNY     28  -6  22 N6        30.10S WCI  22
LAND O LAKES   SUNNY     28  -5  23 NW6       30.12S WCI  21
PHILLIPS       SUNNY     32   5  31 E3        30.11S
TOMAHAWK       SUNNY     31  -2  25 CALM      30.12F
MEDFORD        SUNNY     30   6  36 CALM      30.12S
MERRILL        SUNNY     31   3  29 N5        30.12F WCI  27
$$

WIZ029-030-035-036-043>047-272300-
CENTRAL WISCONSIN

CITY           SKY/WX    TMP DP  RH WIND       PRES   REMARKS
WAUSAU         SUNNY     32   2  27 VRB7      30.12F WCI  26
MOSINEE        SUNNY     30   3  31 CALM      30.14F
MARSHFIELD     SUNNY     31   5  33 CALM      30.14F
STEVENS POINT  SUNNY     30   3  31 N5        30.15S WCI  25
WAUPACA        SUNNY     35  -1  22 N7        30.16F WCI  29
WAUTOMA        SUNNY     33   3  28 NW9       30.16S WCI  25
WISC RAPIDS    SUNNY     32   5  32 CALM      30.17F
CAMP DOUGLAS   SUNNY     36   4  25 N8        30.15S WCI  30
$$

WIZ011>013-019>022-031-037>040-048>050-272300-
NORTHEAST WISCONSIN

CITY           SKY/WX    TMP DP  RH WIND       PRES   REMARKS
ANTIGO         SUNNY     28   3  34 N6        30.11F WCI  22
SHAWANO        SUNNY     34   2  26 E6        30.16S WCI  28
OCONTO         SUNNY     25  10  53 E6        30.19S WCI  18
STURGEON BAY   SUNNY     25   3  39 N8        30.20S WCI  16
GREEN BAY      SUNNY     29   7  39 CALM      30.18S
MANITOWOC      SUNNY     27   9  46 N12       30.18S WCI  17
APPLETON       SUNNY     30   3  31 N6        30.16F WCI  24
CLINTONVILLE   SUNNY     32   0  25 N6        30.15F WCI  26
OSHKOSH        SUNNY     29   7  39 E6        30.17S WCI  23
$$

WIZ032>034-041-042-053>061-272300-
SOUTHWEST WISCONSIN

CITY           SKY/WX    TMP DP  RH WIND       PRES   REMARKS
LA CROSSE      SUNNY     36   8  31 CALM      30.18S
SPARTA         SUNNY     36   5  27 CALM      30.17S
VIROQUA        SUNNY     32   8  37 CALM      30.14S
BOSCOBEL       SUNNY     34   9  35 NW6       30.18S WCI  29
PRAIRIE DU CHI SUNNY     32   7  34 W7        30.18S WCI  26
PLATTEVILLE    SUNNY     32   9  38 NW5       30.16S WCI  27
$$

WIZ056-057-062-063-064-067-068-272300-
SOUTH CENTRAL WISCONSIN

CITY           SKY/WX    TMP DP  RH WIND       PRES   REMARKS
REEDSBURG      SUNNY     33   2  27 NE3       30.14F
BARABOO/DELLS  SUNNY     34   3  27 N7        30.14S WCI  28
LONE ROCK      SUNNY     37   5  26 NW8       30.16F WCI  31
MINERAL POINT  SUNNY     32  10  40 W6        30.14S WCI  26
MADISON        SUNNY     35   4  27 N8        30.15S WCI  29
MIDDLETON      SUNNY     35   2  24 N5        30.15F WCI  31
WATERTOWN      SUNNY     31   7  36 N9G16     30.15S WCI  23
MONROE         SUNNY     32   9  37 N7        30.14S WCI  26
JANESVILLE     SUNNY     34   3  27 N8G18     30.15S WCI  27
$$

WIZ051-052-058>065-066-070>072-272300-
SOUTHEAST WISCONSIN

CITY           SKY/WX    TMP DP  RH WIND       PRES   REMARKS
MILWAUKEE      MOSUNNY   27  12  53 NE16G24   30.17S WCI  15
WAUKESHA       NOT AVBL
MILWAUKEE/TIMM SUNNY     27  10  50 E12G20    30.17S WCI  16
RACINE         SUNNY     26  12  55 NE17G23   30.19R WCI  13
BURLINGTON     SUNNY     30   6  36 N12G17    30.15R WCI  20
KENOSHA        SUNNY     28  14  55 NE14G22   30.16R WCI  17
FOND DU LAC    SUNNY     30   4  33 NE10      30.17F WCI  21
SHEBOYGAN      SUNNY     27  11  51 NE14      30.17S WCI  16
WEST BEND      SUNNY     30   1  29 N6        30.15F WCI  24
JUNEAU         SUNNY     30   6  36 N12       30.16F WCI  20
$$

LSZ147-162-272300-
LAKE SUPERIOR

STATION/POSITION TIME  TEMP    WIND        PRES    WAVE
                       AIR SEA DIR/SP/G            HT/PER
                 (UTC) (F)     (DEG/KT/KT) (MB)    (FT/S)
DEVILS ISLAND    2200   23     110/  9/ 11 1024.3F
PORT WING        2140   27      10/  7/  9 1022.7F
SAXON HARBOR     2100   24      40/  8/ 11 1023.0F
$$

LMZ867-665-643>646-272300-
LAKE MICHIGAN

STATION/POSITION TIME  TEMP    WIND        PRES    WAVE
                       AIR SEA DIR/SP/G            HT/PER
                 (UTC) (F)     (DEG/KT/KT) (MB)    (FT/S)
NORTHPORT PIER   2116   22     360/ 12/ 17 1022.4F
SISTER BAY       2147   31     360/ 14/ 20   N/A
KEWAUNEE LAKESHO 2100   26      20/  7/ 14 1021.3F
SHEBOYGAN LAKESH 2200   23      30/ 15/ 17 1023.5R
PORT WASHINGTON  2100   27      50/ 15/ 18 1022.4F
MILWAUKEE LAKESH 2100   24      30/ 17/ 21   N/A
KENOSHA   LAKESH 2200   24      30/ 18/ 22 1021.7R
$$

TC  - TEMPERATURE IN CELSIUS
VSB - VISIBILITY IN STATUTE MILES
WCI - WIND CHILL INDEX
HX  - HEAT INDEX



USA.gov is the U.S. government's official web portal to all federal, state and local government web resources and services.